Weather History for KINK - April, 2013

Change the Weather History Date:

Sunday, April 28, 2013

  Actual Average Record
Temperature  
Mean Temperature 72 °F -  
Max Temperature 88 °F 84 °F 99 °F (1992)
Min Temperature 57 °F 50 °F 36 °F (2008)
Cooling Degree Days 7    
Growing Degree Days 22 (Base 50)    
Moisture  
Dew Point 42 °F    
Average Humidity 37    
Maximum Humidity 57    
Minimum Humidity 14    
Precipitation  
Precipitation 0.00 in - - ()
Sea Level Pressure  
Sea Level Pressure 29.84 in    
Wind  
Wind Speed 10 mph (SE)    
Max Wind Speed 29 mph    
Max Gust Speed 37 mph    
Visibility 10 miles    
Events Rain    
Averages and records for this station are not official NWS values.
T = Trace of Precipitation, MM = Missing Value Source: NWS Daily Summary

Daily Weather History Graph

Daily Weather History Graph

Search for Another Location

Airport or City:

Trip Planner

Search our weather history database for the weather conditions in past years. The results will help you decide how hot, cold, wet, or windy it might be!

Date:

Astronomy

Apr. 28, 2013 Rise Set
Actual Time 7:09 AM CDT 8:31 PM CDT
Civil Twilight 6:44 AM CDT 8:56 PM CDT
Nautical Twilight 6:13 AM CDT 9:27 PM CDT
Astronomical Twilight 5:41 AM CDT 9:59 PM CDT
Moon 11:57 PM CDT (4/28) 9:35 AM CDT (4/28)
Length of Visible Light 14h 12m
Length of Day
13h 21m
Waning Gibbous, 88% of the Moon is Illuminated
Apr 28
Waning Gibbous
May 2
Last Quarter
May 9
New
May 17
First Quarter
May 24
Full

Hourly Weather History & Observations

Time (CDT) Temp. Dew Point Humidity Pressure Visibility Wind Dir Wind Speed Gust Speed Precip Events Conditions
12:53 AM 66.9 °F 36.0 °F 32% 29.91 in 10.0 mi ESE 10.4 mph - N/A   Clear
1:53 AM 64.9 °F 37.0 °F 36% 29.91 in 10.0 mi ESE 8.1 mph - N/A   Clear
2:53 AM 63.0 °F 37.9 °F 40% 29.89 in 10.0 mi ESE 9.2 mph - N/A   Clear
3:53 AM 61.0 °F 37.9 °F 42% 29.88 in 10.0 mi ESE 9.2 mph - N/A   Clear
4:53 AM 60.1 °F 39.0 °F 46% 29.88 in 10.0 mi SE 6.9 mph - N/A   Clear
5:53 AM 60.1 °F 39.9 °F 47% 29.89 in 10.0 mi SE 6.9 mph - N/A   Scattered Clouds
6:53 AM 57.0 °F 41.0 °F 55% 29.90 in 10.0 mi ESE 4.6 mph - N/A   Clear
7:53 AM 60.8 °F 44.6 °F 55% 30.02 in 10.0 mi East 5.8 mph - N/A   Clear
8:53 AM 64.0 °F 46.9 °F 54% 29.93 in 10.0 mi ESE 9.2 mph - N/A   Clear
9:53 AM 71.1 °F 55.0 °F 57% 29.92 in 10.0 mi SSE 13.8 mph - N/A   Clear
10:53 AM 73.9 °F 57.0 °F 55% 29.91 in 10.0 mi SSE 13.8 mph 19.6 mph N/A   Clear
11:53 AM 77.0 °F 55.0 °F 47% 29.89 in 10.0 mi South 12.7 mph 18.4 mph N/A   Clear
12:53 PM 81.0 °F 51.1 °F 35% 29.87 in 10.0 mi SSE 12.7 mph 17.3 mph N/A   Clear
1:53 PM 84.0 °F 46.0 °F 26% 29.83 in 10.0 mi South 8.1 mph 19.6 mph N/A   Clear
2:53 PM 82.9 °F 39.9 °F 22% 29.81 in 10.0 mi SE 13.8 mph 21.9 mph N/A   Mostly Cloudy
3:53 PM 84.0 °F 33.1 °F 16% 29.77 in 10.0 mi West 4.6 mph 17.3 mph N/A   Clear
4:53 PM 87.1 °F 33.1 °F 15% 29.73 in 10.0 mi Variable 4.6 mph - N/A   Clear
5:53 PM 84.9 °F 30.0 °F 14% 29.73 in 10.0 mi SE 6.9 mph - N/A   Clear
6:53 PM 79.0 °F 39.9 °F 25% 29.76 in 10.0 mi ENE 28.8 mph 36.8 mph 0.00 in Rain Light Rain
7:53 PM 80.1 °F 37.0 °F 21% 29.75 in 10.0 mi ENE 8.1 mph - 0.00 in   Clear
8:53 PM 75.0 °F 37.0 °F 25% 29.74 in 10.0 mi East 5.8 mph - N/A   Clear
9:53 PM 69.1 °F 35.1 °F 29% 29.76 in 10.0 mi SE 8.1 mph - N/A   Clear
10:53 PM 70.0 °F 42.1 °F 36% 29.78 in 10.0 mi South 15.0 mph 21.9 mph N/A   Clear
11:53 PM 64.9 °F 46.0 °F 50% 29.78 in 10.0 mi South 6.9 mph - N/A   Clear